| time (UTC) | temp F | wind direction | speed MPH | gust MPH | rain 1hr in | rain 24hr in | rain mn in | humidity % | barometer mb |
| 20260901205517 | 78 | 142 | 8.0 | 16.0 | 0.00 | 0.00 | 0.00 | 1 | 1012.4 |
| 20260901205021 | 78 | 142 | 9.0 | 15.0 | 0.00 | 0.00 | 0.00 | 1 | 1012.5 |
| 20260901204535 | 77 | 132 | 8.0 | 18.0 | 0.00 | 0.00 | 0.00 | 1 | 1012.4 |
| 20260901204018 | 77 | 135 | 7.0 | 16.0 | 0.00 | 0.00 | 0.00 | 1 | 1012.5 |
| 20260901203519 | 77 | 121 | 7.0 | 16.0 | 0.00 | 0.00 | 0.00 | 1 | 1012.6 |
| 20260901203041 | 76 | 134 | 12.0 | 18.0 | 0.00 | 0.00 | 0.00 | 1 | 1012.7 |
| 20260901202516 | 77 | 105 | 13.0 | 18.0 | 0.00 | 0.00 | 0.00 | 1 | 1012.6 |
| 20260901202016 | 77 | 127 | 8.0 | 17.0 | 0.00 | 0.00 | 0.00 | 1 | 1012.7 |
| 20260901201538 | 77 | 142 | 13.0 | 17.0 | 0.00 | 0.00 | 0.00 | 1 | 1012.7 |
| 20260901201017 | 76 | 123 | 9.0 | 18.0 | 0.00 | 0.00 | 0.00 | 1 | 1012.7 |
| 20260901200520 | 76 | 92 | 12.0 | 18.0 | 0.00 | 0.00 | 0.00 | 1 | 1012.7 |
| 20260901200106 | 76 | 167 | 10.0 | 21.0 | 0.00 | 0.00 | 0.00 | 1 | 1012.9 |
| 20260901195519 | 77 | 140 | 11.0 | 21.0 | 0.00 | 0.00 | 0.00 | 1 | 1012.9 |
| 20260901195018 | 76 | 148 | 11.0 | 20.0 | 0.00 | 0.00 | 0.00 | 1 | 1012.9 |
| 20260901194546 | 76 | 135 | 11.0 | 19.0 | 0.00 | 0.00 | 0.00 | 1 | 1012.9 |
| 20260901194022 | 76 | 132 | 10.0 | 16.0 | 0.00 | 0.00 | 0.00 | 1 | 1012.9 |
| 20260901193518 | 76 | 128 | 12.0 | 20.0 | 0.00 | 0.00 | 0.00 | 1 | 1012.9 |
| 20260901193049 | 75 | 134 | 9.0 | 20.0 | 0.00 | 0.00 | 0.00 | 1 | 1013.3 |
| 20260901192518 | 75 | 136 | 14.0 | 20.0 | 0.00 | 0.00 | 0.00 | 1 | 1013.3 |
| 20260901192018 | 75 | 146 | 13.0 | 19.0 | 0.00 | 0.00 | 0.00 | 1 | 1013.3 |
| 20260901191619 | 75 | 175 | 12.0 | 20.0 | 0.00 | 0.00 | 0.00 | 1 | 1013.4 |
| 20260901191017 | 75 | 129 | 12.0 | 18.0 | 0.00 | 0.00 | 0.00 | 1 | 1013.3 |
| 20260901190519 | 75 | 136 | 13.0 | 18.0 | 0.00 | 0.00 | 0.00 | 1 | 1013.3 |
| 20260901190036 | 74 | 132 | 13.0 | 18.0 | 0.00 | 0.00 | 0.00 | 1 | 1013.3 |
| 20260901185520 | 73 | 134 | 14.0 | 18.0 | 0.00 | 0.00 | 0.00 | 1 | 1013.3 |
| 20260901185019 | 73 | 124 | 11.0 | 17.0 | 0.00 | 0.00 | 0.00 | 1 | 1013.4 |
| 20260901184539 | 72 | 134 | 12.0 | 17.0 | 0.00 | 0.00 | 0.00 | 1 | 1013.4 |
| 20260901184018 | 72 | 128 | 12.0 | 17.0 | 0.00 | 0.00 | 0.00 | 1 | 1013.6 |
| 20260901183517 | 72 | 125 | 11.0 | 20.0 | 0.00 | 0.00 | 0.00 | 1 | 1013.6 |
| 20260901183051 | 72 | 171 | 12.0 | 17.0 | 0.00 | 0.00 | 0.00 | 1 | 1013.7 |
| 20260901182516 | 71 | 120 | 11.0 | 17.0 | 0.00 | 0.00 | 0.00 | 1 | 1013.7 |
| 20260901182018 | 71 | 130 | 10.0 | 18.0 | 0.00 | 0.00 | 0.00 | 1 | 1013.7 |
| 20260901181540 | 71 | 128 | 13.0 | 18.0 | 0.00 | 0.00 | 0.00 | 1 | 1013.7 |
| 20260901181017 | 71 | 137 | 13.0 | 17.0 | 0.00 | 0.00 | 0.00 | 1 | 1013.7 |
| 20260901180521 | 71 | 142 | 13.0 | 18.0 | 0.00 | 0.00 | 0.00 | 1 | 1013.8 |
| 20260901180050 | 71 | 132 | 12.0 | 18.0 | 0.00 | 0.00 | 0.00 | 1 | 1014.0 |
| 20260901175521 | 71 | 108 | 13.0 | 18.0 | 0.00 | 0.00 | 0.00 | 1 | 1013.9 |
| 20260901175019 | 72 | 110 | 13.0 | 17.0 | 0.00 | 0.00 | 0.00 | 1 | 1014.0 |
| 20260901174546 | 70 | 136 | 12.0 | 16.0 | 0.00 | 0.00 | 0.00 | 1 | 1014.0 |
| 20260901174018 | 70 | 104 | 11.0 | 16.0 | 0.00 | 0.00 | 0.00 | 1 | 1014.0 |
| 20260901173518 | 70 | 146 | 11.0 | 16.0 | 0.00 | 0.00 | 0.00 | 1 | 1013.9 |
| 20260901173037 | 69 | 117 | 11.0 | 16.0 | 0.00 | 0.00 | 0.00 | 1 | 1014.0 |
| 20260901172519 | 69 | 130 | 10.0 | 17.0 | 0.00 | 0.00 | 0.00 | 1 | 1014.0 |
| 20260901172022 | 69 | 108 | 11.0 | 17.0 | 0.00 | 0.00 | 0.00 | 1 | 1014.0 |
| 20260901171549 | 68 | 130 | 12.0 | 16.0 | 0.00 | 0.00 | 0.00 | 1 | 1014.3 |
| 20260901171018 | 69 | 140 | 10.0 | 16.0 | 0.00 | 0.00 | 0.00 | 1 | 1014.3 |
| 20260901170518 | 68 | 107 | 9.0 | 15.0 | 0.00 | 0.00 | 0.00 | 1 | 1014.4 |
| 20260901170051 | 68 | 101 | 10.0 | 17.0 | 0.00 | 0.00 | 0.00 | 1 | 1014.3 |
| 20260901165516 | 67 | 107 | 12.0 | 17.0 | 0.00 | 0.00 | 0.00 | 1 | 1014.4 |
| 20260901165020 | 67 | 134 | 13.0 | 17.0 | 0.00 | 0.00 | 0.00 | 1 | 1014.3 |
| 20260901164541 | 66 | 120 | 12.0 | 17.0 | 0.00 | 0.00 | 0.00 | 1 | 1014.3 |
| 20260901164021 | 67 | 133 | 10.0 | 17.0 | 0.00 | 0.00 | 0.00 | 1 | 1014.4 |
| 20260901163519 | 67 | 127 | 9.0 | 16.0 | 0.00 | 0.00 | 0.00 | 1 | 1014.4 |
| 20260901163045 | 66 | 123 | 10.0 | 13.0 | 0.00 | 0.00 | 0.00 | 1 | 1014.3 |
| 20260901162517 | 65 | 129 | 11.0 | 14.0 | 0.00 | 0.00 | 0.00 | 1 | 1014.2 |
| 20260901162020 | 65 | 133 | 10.0 | 15.0 | 0.00 | 0.00 | 0.00 | 1 | 1014.2 |
| 20260901161541 | 65 | 132 | 12.0 | 18.0 | 0.00 | 0.00 | 0.00 | 1 | 1014.2 |
| 20260901161016 | 64 | 126 | 13.0 | 18.0 | 0.00 | 0.00 | 0.00 | 1 | 1014.4 |
| 20260901160520 | 64 | 129 | 13.0 | 17.0 | 0.00 | 0.00 | 0.00 | 1 | 1014.4 |
| 20260901160059 | 64 | 133 | 11.0 | 18.0 | 0.00 | 0.00 | 0.00 | 1 | 1014.4 |
| 20260901155516 | 64 | 115 | 12.0 | 18.0 | 0.00 | 0.00 | 0.00 | 1 | 1014.3 |
| 20260901155017 | 64 | 134 | 10.0 | 16.0 | 0.00 | 0.00 | 0.00 | 1 | 1014.5 |
| 20260901154551 | 63 | 119 | 10.0 | 17.0 | 0.00 | 0.00 | 0.00 | 1 | 1014.6 |
| 20260901154021 | 63 | 130 | 13.0 | 17.0 | 0.00 | 0.00 | 0.00 | 1 | 1014.5 |
| 20260901153521 | 63 | 123 | 12.0 | 15.0 | 0.00 | 0.00 | 0.00 | 1 | 1014.6 |
| 20260901153100 | 63 | 113 | 9.0 | 14.0 | 0.00 | 0.00 | 0.00 | 1 | 1014.5 |
| 20260901152517 | 63 | 121 | 9.0 | 14.0 | 0.00 | 0.00 | 0.00 | 1 | 1014.7 |
| 20260901152017 | 64 | 145 | 9.0 | 13.0 | 0.00 | 0.00 | 0.00 | 1 | 1014.8 |
| 20260901151544 | 63 | 126 | 8.0 | 14.0 | 0.00 | 0.00 | 0.00 | 1 | 1014.9 |
| 20260901151017 | 63 | 143 | 8.0 | 14.0 | 0.00 | 0.00 | 0.00 | 1 | 1014.8 |
| 20260901150518 | 62 | 112 | 8.0 | 15.0 | 0.00 | 0.00 | 0.00 | 1 | 1014.8 |
| 20260901150058 | 62 | 110 | 9.0 | 15.0 | 0.00 | 0.00 | 0.00 | 1 | 1014.7 |
| 20260901145521 | 62 | 119 | 8.0 | 12.0 | 0.00 | 0.00 | 0.00 | 1 | 1014.7 |
| 20260901145018 | 62 | 94 | 6.0 | 12.0 | 0.00 | 0.00 | 0.00 | 1 | 1014.6 |
| 20260901144551 | 62 | 98 | 7.0 | 12.0 | 0.00 | 0.00 | 0.00 | 1 | 1014.9 |
| 20260901144019 | 61 | 103 | 7.0 | 10.0 | 0.00 | 0.00 | 0.00 | 1 | 1014.6 |
| 20260901143519 | 60 | 103 | 6.0 | 11.0 | 0.00 | 0.00 | 0.00 | 1 | 1014.7 |
| 20260901143047 | 60 | 105 | 8.0 | 11.0 | 0.00 | 0.00 | 0.00 | 1 | 1014.6 |
| 20260901142517 | 61 | 67 | 7.0 | 11.0 | 0.00 | 0.00 | 0.00 | 1 | 1014.5 |
| 20260901142018 | 61 | 105 | 5.0 | 9.0 | 0.00 | 0.00 | 0.00 | 1 | 1014.4 |
| 20260901141541 | 60 | 91 | 6.0 | 9.0 | 0.00 | 0.00 | 0.00 | 1 | 1014.5 |
| 20260901141018 | 60 | 89 | 6.0 | 9.0 | 0.00 | 0.00 | 0.00 | 1 | 1014.4 |
| 20260901140517 | 59 | 80 | 7.0 | 10.0 | 0.00 | 0.00 | 0.00 | 1 | 1014.2 |
| 20260901140125 | 58 | 69 | 5.0 | 10.0 | 0.00 | 0.00 | 0.00 | 1 | 1014.0 |
| 20260901135518 | 58 | 61 | 5.0 | 12.0 | 0.00 | 0.00 | 0.00 | 1 | 1013.9 |
| 20260901135018 | 58 | 63 | 6.0 | 12.0 | 0.00 | 0.00 | 0.00 | 1 | 1014.0 |
| 20260901134552 | 57 | 80 | 5.0 | 8.0 | 0.00 | 0.00 | 0.00 | 1 | 1014.1 |
| 20260901134022 | 57 | 69 | 4.0 | 9.0 | 0.00 | 0.00 | 0.00 | 1 | 1014.1 |
| 20260901133516 | 57 | 53 | 5.0 | 9.0 | 0.00 | 0.00 | 0.00 | 1 | 1014.2 |
| 20260901133041 | 57 | 66 | 5.0 | 8.0 | 0.00 | 0.00 | 0.00 | 1 | 1014.2 |
| 20260901132519 | 57 | 92 | 6.0 | 8.0 | 0.00 | 0.00 | 0.00 | 1 | 1014.2 |
| 20260901132022 | 57 | 87 | 5.0 | 10.0 | 0.00 | 0.00 | 0.00 | 1 | 1014.1 |
| 20260901131547 | 57 | 84 | 6.0 | 10.0 | 0.00 | 0.00 | 0.00 | 1 | 1014.1 |
| 20260901131023 | 57 | 87 | 7.0 | 9.0 | 0.00 | 0.00 | 0.00 | 1 | 1014.1 |
| 20260901130522 | 56 | 90 | 7.0 | 9.0 | 0.00 | 0.00 | 0.00 | 1 | 1014.2 |
| 20260901130055 | 56 | 84 | 5.0 | 11.0 | 0.00 | 0.00 | 0.00 | 1 | 1014.2 |
| 20260901125517 | 56 | 98 | 6.0 | 14.0 | 0.00 | 0.00 | 0.00 | 1 | 1014.3 |
| 20260901125016 | 57 | 82 | 8.0 | 14.0 | 0.00 | 0.00 | 0.00 | 1 | 1014.2 |
| 20260901124540 | 56 | 79 | 7.0 | 12.0 | 0.00 | 0.00 | 0.00 | 1 | 1014.2 |
| 20260901124020 | 55 | 90 | 5.0 | 10.0 | 0.00 | 0.00 | 0.00 | 1 | 1014.2 |
| 20260901123517 | 54 | 74 | 5.0 | 9.0 | 0.00 | 0.00 | 0.00 | 1 | 1014.1 |
| 20260901123046 | 54 | 64 | 6.0 | 9.0 | 0.00 | 0.00 | 0.00 | 1 | 1014.1 |
| 20260901122521 | 54 | 79 | 5.0 | 9.0 | 0.00 | 0.00 | 0.00 | 1 | 1014.1 |
| 20260901122018 | 53 | 57 | 5.0 | 7.0 | 0.00 | 0.00 | 0.00 | 1 | 1014.2 |
| 20260901121548 | 54 | 59 | 5.0 | 7.0 | 0.00 | 0.00 | 0.00 | 1 | 1014.3 |
| 20260901121019 | 54 | 78 | 5.0 | 8.0 | 0.00 | 0.00 | 0.00 | 1 | 1014.2 |
| 20260901120521 | 55 | 78 | 5.0 | 10.0 | 0.00 | 0.00 | 0.00 | 1 | 1014.3 |
| 20260901120045 | 56 | 82 | 6.0 | 10.0 | 0.00 | 0.00 | 0.00 | 1 | 1014.2 |
| 20260901115519 | 55 | 84 | 6.0 | 10.0 | 0.00 | 0.00 | 0.00 | 1 | 1014.2 |
| 20260901115019 | 55 | 92 | 5.0 | 13.0 | 0.00 | 0.00 | 0.00 | 1 | 1014.3 |
| 20260901114543 | 55 | 96 | 7.0 | 12.0 | 0.00 | 0.00 | 0.00 | 1 | 1014.2 |
| 20260901114019 | 55 | 89 | 6.0 | 11.0 | 0.00 | 0.00 | 0.00 | 1 | 1014.3 |
| 20260901113521 | 54 | 90 | 7.0 | 10.0 | 0.00 | 0.00 | 0.00 | 1 | 1014.5 |
| 20260901113056 | 54 | 67 | 5.0 | 9.0 | 0.00 | 0.00 | 0.00 | 1 | 1014.5 |
| 20260901112522 | 53 | 89 | 5.0 | 9.0 | 0.00 | 0.00 | 0.00 | 1 | 1014.4 |
| 20260901112017 | 53 | 52 | 5.0 | 7.0 | 0.00 | 0.00 | 0.00 | 1 | 1014.3 |
| 20260901111550 | 53 | 52 | 4.0 | 7.0 | 0.00 | 0.00 | 0.00 | 1 | 1014.4 |
| 20260901111021 | 54 | 52 | 5.0 | 9.0 | 0.00 | 0.00 | 0.00 | 1 | 1014.6 |
| 20260901110519 | 55 | 52 | 5.0 | 10.0 | 0.00 | 0.00 | 0.00 | 1 | 1014.5 |
| 20260901110045 | 56 | 78 | 4.0 | 10.0 | 0.00 | 0.00 | 0.00 | 1 | 1014.6 |
| 20260901105516 | 57 | 74 | 5.0 | 12.0 | 0.00 | 0.00 | 0.00 | 1 | 1014.6 |
| 20260901105021 | 57 | 90 | 7.0 | 12.0 | 0.00 | 0.00 | 0.00 | 1 | 1014.7 |
| 20260901104550 | 56 | 91 | 9.0 | 11.0 | 0.00 | 0.00 | 0.00 | 1 | 1014.8 |
| 20260901104018 | 56 | 94 | 7.0 | 10.0 | 0.00 | 0.00 | 0.00 | 1 | 1014.6 |
| 20260901103518 | 56 | 97 | 6.0 | 10.0 | 0.00 | 0.00 | 0.00 | 1 | 1014.7 |
| 20260901103050 | 55 | 91 | 5.0 | 10.0 | 0.00 | 0.00 | 0.00 | 1 | 1014.6 |
| 20260901102521 | 55 | 65 | 6.0 | 10.0 | 0.00 | 0.00 | 0.00 | 1 | 1014.6 |
| 20260901102021 | 55 | 74 | 5.0 | 11.0 | 0.00 | 0.00 | 0.00 | 1 | 1014.7 |
| 20260901101600 | 56 | 59 | 6.0 | 11.0 | 0.00 | 0.00 | 0.00 | 1 | 1014.9 |
| 20260901101020 | 56 | 85 | 4.0 | 9.0 | 0.00 | 0.00 | 0.00 | 1 | 1014.9 |
| 20260901100517 | 57 | 74 | 4.0 | 9.0 | 0.00 | 0.00 | 0.00 | 1 | 1015.0 |
| 20260901100053 | 57 | 78 | 4.0 | 9.0 | 0.00 | 0.00 | 0.00 | 1 | 1014.9 |
| 20260901095520 | 57 | 96 | 4.0 | 10.0 | 0.00 | 0.00 | 0.00 | 1 | 1014.7 |
| 20260901095018 | 57 | 92 | 7.0 | 10.0 | 0.00 | 0.00 | 0.00 | 1 | 1015.0 |
| 20260901094546 | 55 | 85 | 5.0 | 9.0 | 0.00 | 0.00 | 0.00 | 1 | 1015.0 |
| 20260901094019 | 54 | 69 | 4.0 | 6.0 | 0.00 | 0.00 | 0.00 | 1 | 1015.0 |
| 20260901093519 | 53 | 69 | 4.0 | 5.0 | 0.00 | 0.00 | 0.00 | 1 | 1015.1 |
| 20260901093107 | 53 | 46 | 2.0 | 5.0 | 0.00 | 0.00 | 0.00 | 1 | 1015.1 |
| 20260901092520 | 52 | 46 | 2.0 | 5.0 | 0.00 | 0.00 | 0.00 | 1 | 1015.1 |
| 20260901092018 | 53 | 46 | 2.0 | 5.0 | 0.00 | 0.00 | 0.00 | 1 | 1015.0 |
| 20260901091556 | 52 | 46 | 1.0 | 5.0 | 0.00 | 0.00 | 0.00 | 1 | 1015.0 |
| 20260901091015 | 52 | 46 | 2.0 | 4.0 | 0.00 | 0.00 | 0.00 | 1 | 1015.0 |
| 20260901090517 | 52 | 46 | 2.0 | 4.0 | 0.00 | 0.00 | 0.00 | 1 | 1015.1 |
| 20260901090046 | 52 | 46 | 0.0 | 4.0 | 0.00 | 0.00 | 0.00 | 1 | 1015.1 |
| 20260901085517 | 52 | 46 | 1.0 | 5.0 | 0.00 | 0.00 | 0.00 | 1 | 1015.0 |
| 20260901085018 | 52 | 49 | 3.0 | 6.0 | 0.00 | 0.00 | 0.00 | 1 | 1015.0 |
| 20260901084539 | 52 | 46 | 3.0 | 6.0 | 0.00 | 0.00 | 0.00 | 1 | 1015.0 |
| 20260901084019 | 51 | 61 | 2.0 | 5.0 | 0.00 | 0.00 | 0.00 | 1 | 1015.2 |
| 20260901083518 | 50 | 61 | 2.0 | 4.0 | 0.00 | 0.00 | 0.00 | 1 | 1015.3 |
| 20260901083042 | 50 | 61 | 1.0 | 3.0 | 0.00 | 0.00 | 0.00 | 1 | 1015.3 |
| 20260901082517 | 51 | 61 | 2.0 | 5.0 | 0.00 | 0.00 | 0.00 | 1 | 1015.3 |
| 20260901082019 | 51 | 61 | 2.0 | 5.0 | 0.00 | 0.00 | 0.00 | 1 | 1015.2 |
| 20260901081534 | 51 | 61 | 1.0 | 4.0 | 0.00 | 0.00 | 0.00 | 1 | 1015.2 |
| 20260901081017 | 51 | 61 | 2.0 | 4.0 | 0.00 | 0.00 | 0.00 | 1 | 1015.2 |
| 20260901080518 | 51 | 61 | 1.0 | 3.0 | 0.00 | 0.00 | 0.00 | 1 | 1015.3 |
| 20260901080123 | 51 | 61 | 1.0 | 3.0 | 0.00 | 0.00 | 0.00 | 1 | 1015.3 |
| 20260901075516 | 50 | 61 | 1.0 | 3.0 | 0.00 | 0.00 | 0.00 | 1 | 1015.4 |
| 20260901075018 | 50 | 61 | 0.0 | 3.0 | 0.00 | 0.00 | 0.00 | 1 | 1015.5 |
| 20260901074534 | 49 | 61 | 0.0 | 3.0 | 0.00 | 0.00 | 0.00 | 1 | 1015.5 |
| 20260901074019 | 50 | 61 | 1.0 | 3.0 | 0.00 | 0.00 | 0.00 | 1 | 1015.5 |
| 20260901073517 | 50 | 61 | 1.0 | 3.0 | 0.00 | 0.00 | 0.00 | 1 | 1015.6 |
| 20260901073036 | 50 | 61 | 0.0 | 2.0 | 0.00 | 0.00 | 0.00 | 1 | 1015.5 |
| 20260901072519 | 50 | 61 | 0.0 | 3.0 | 0.00 | 0.00 | 0.00 | 1 | 1015.4 |
| 20260901072019 | 51 | 61 | 1.0 | 3.0 | 0.00 | 0.00 | 0.00 | 1 | 1015.4 |
| 20260901071538 | 51 | 61 | 0.0 | 2.0 | 0.00 | 0.00 | 0.00 | 1 | 1015.5 |
| 20260901071021 | 52 | 61 | 0.0 | 3.0 | 0.00 | 0.00 | 0.00 | 1 | 1015.4 |
| 20260901070516 | 53 | 61 | 1.0 | 5.0 | 0.00 | 0.00 | 0.00 | 1 | 1015.4 |
| 20260901070038 | 53 | 61 | 2.0 | 5.0 | 0.00 | 0.00 | 0.00 | 1 | 1015.4 |
| 20260901065519 | 53 | 61 | 2.0 | 4.0 | 0.00 | 0.00 | 0.00 | 1 | 1015.4 |
| 20260901065018 | 53 | 61 | 1.0 | 3.0 | 0.00 | 0.00 | 0.00 | 1 | 1015.5 |
| 20260901064534 | 53 | 61 | 1.0 | 4.0 | 0.00 | 0.00 | 0.00 | 1 | 1015.5 |
| 20260901064018 | 54 | 61 | 2.0 | 4.0 | 0.00 | 0.00 | 0.00 | 1 | 1015.6 |
| 20260901063516 | 54 | 61 | 2.0 | 4.0 | 0.00 | 0.00 | 0.00 | 1 | 1015.5 |
| 20260901063051 | 54 | 61 | 3.0 | 4.0 | 0.00 | 0.00 | 0.00 | 1 | 1015.5 |
| 20260901062517 | 54 | 61 | 2.0 | 5.0 | 0.00 | 0.00 | 0.00 | 1 | 1015.5 |
| 20260901062017 | 54 | 61 | 2.0 | 4.0 | 0.00 | 0.00 | 0.00 | 1 | 1015.4 |
| 20260901061550 | 55 | 61 | 2.0 | 5.0 | 0.00 | 0.00 | 0.00 | 1 | 1015.5 |
| 20260901061019 | 55 | 35 | 3.0 | 4.0 | 0.00 | 0.00 | 0.00 | 1 | 1015.7 |
| 20260901060519 | 55 | 34 | 2.0 | 5.0 | 0.00 | 0.00 | 0.00 | 1 | 1015.6 |
| 20260901060038 | 55 | 34 | 3.0 | 5.0 | 0.00 | 0.00 | 0.00 | 1 | 1015.5 |
| 20260901055518 | 56 | 34 | 3.0 | 5.0 | 0.00 | 0.00 | 0.00 | 1 | 1015.4 |
| 20260901055020 | 56 | 61 | 2.0 | 5.0 | 0.00 | 0.00 | 0.00 | 1 | 1015.5 |
| 20260901054549 | 56 | 55 | 2.0 | 5.0 | 0.00 | 0.00 | 0.00 | 1 | 1015.5 |
| 20260901054018 | 56 | 34 | 2.0 | 5.0 | 0.00 | 0.00 | 0.00 | 1 | 1015.6 |
| 20260901053516 | 55 | 60 | 2.0 | 5.0 | 0.00 | 0.00 | 0.00 | 1 | 1015.6 |
| 20260901053041 | 54 | 31 | 2.0 | 4.0 | 0.00 | 0.00 | 0.00 | 1 | 1015.5 |
| 20260901052516 | 53 | 30 | 2.0 | 4.0 | 0.00 | 0.00 | 0.00 | 1 | 1015.6 |
| 20260901052020 | 53 | 340 | 0.0 | 2.0 | 0.00 | 0.00 | 0.00 | 1 | 1015.6 |
| 20260901051545 | 53 | 341 | 0.0 | 4.0 | 0.00 | 0.00 | 0.00 | 1 | 1015.7 |
| 20260901051018 | 53 | 340 | 1.0 | 4.0 | 0.00 | 0.00 | 0.00 | 1 | 1015.8 |
| 20260901050517 | 54 | 39 | 0.0 | 3.0 | 0.00 | 0.00 | 0.00 | 1 | 1015.7 |
| 20260901050041 | 55 | 39 | 1.0 | 3.0 | 0.00 | 0.00 | 0.00 | 1 | 1015.6 |
| 20260901045518 | 56 | 39 | 1.0 | 5.0 | 0.00 | 0.00 | 0.00 | 1 | 1015.7 |
| 20260901045020 | 56 | 39 | 2.0 | 5.0 | 0.00 | 0.00 | 0.00 | 1 | 1015.7 |
| 20260901044606 | 56 | 39 | 3.0 | 5.0 | 0.00 | 0.00 | 0.00 | 1 | 1015.7 |
| 20260901044017 | 56 | 62 | 3.0 | 5.0 | 0.00 | 0.00 | 0.00 | 1 | 1015.7 |
| 20260901043519 | 56 | 62 | 3.0 | 5.0 | 0.00 | 0.00 | 0.00 | 1 | 1015.8 |
| 20260901043041 | 55 | 63 | 2.0 | 5.0 | 0.00 | 0.00 | 0.00 | 1 | 1015.8 |
| 20260901042516 | 55 | 62 | 3.0 | 5.0 | 0.00 | 0.00 | 0.00 | 1 | 1015.7 |
| 20260901042020 | 55 | 62 | 1.0 | 4.0 | 0.00 | 0.00 | 0.00 | 1 | 1015.6 |
| 20260901041544 | 56 | 62 | 0.0 | 4.0 | 0.00 | 0.00 | 0.00 | 1 | 1015.7 |
| 20260901041020 | 56 | 62 | 2.0 | 4.0 | 0.00 | 0.00 | 0.00 | 1 | 1015.6 |
| 20260901040516 | 56 | 62 | 2.0 | 5.0 | 0.00 | 0.00 | 0.00 | 1 | 1015.7 |
| 20260901035517 | 54 | 63 | 3.0 | 5.0 | 0.00 | 0.00 | 0.00 | 1 | 1015.5 |
| 20260901035015 | 54 | 62 | 0.0 | 1.0 | 0.00 | 0.00 | 0.00 | 1 | 1015.5 |
| 20260901034550 | 54 | 62 | 0.0 | 0.0 | 0.00 | 0.00 | 0.00 | 1 | 1015.3 |
| 20260901034016 | 55 | 62 | 0.0 | 4.0 | 0.00 | 0.00 | 0.00 | 1 | 1015.5 |
| 20260901033517 | 55 | 63 | 1.0 | 3.0 | 0.00 | 0.00 | 0.00 | 1 | 1015.3 |
| 20260901033045 | 55 | 62 | 0.0 | 3.0 | 0.00 | 0.00 | 0.00 | 1 | 1015.2 |
| 20260901032519 | 56 | 62 | 1.0 | 4.0 | 0.00 | 0.00 | 0.00 | 1 | 1015.2 |
| 20260901032017 | 57 | 62 | 1.0 | 5.0 | 0.00 | 0.00 | 0.00 | 1 | 1015.2 |
| 20260901031544 | 57 | 62 | 3.0 | 5.0 | 0.00 | 0.00 | 0.00 | 1 | 1015.1 |
| 20260901031016 | 58 | 62 | 2.0 | 4.0 | 0.00 | 0.00 | 0.00 | 1 | 1015.2 |
| 20260901030516 | 58 | 62 | 2.0 | 3.0 | 0.00 | 0.00 | 0.00 | 1 | 1015.0 |
| 20260901030051 | 58 | 62 | 1.0 | 3.0 | 0.00 | 0.00 | 0.00 | 1 | 1015.0 |
| 20260901025522 | 58 | 62 | 1.0 | 3.0 | 0.00 | 0.00 | 0.00 | 1 | 1014.9 |
| 20260901025018 | 58 | 62 | 1.0 | 3.0 | 0.00 | 0.00 | 0.00 | 1 | 1015.0 |
| 20260901024558 | 59 | 62 | 2.0 | 3.0 | 0.00 | 0.00 | 0.00 | 1 | 1015.1 |
| 20260901024018 | 60 | 234 | 0.0 | 2.0 | 0.00 | 0.00 | 0.00 | 1 | 1015.0 |
| 20260901023520 | 61 | 234 | 1.0 | 2.0 | 0.00 | 0.00 | 0.00 | 1 | 1015.2 |
| 20260901023050 | 61 | 234 | 1.0 | 3.0 | 0.00 | 0.00 | 0.00 | 1 | 1015.0 |
| 20260901022518 | 62 | 234 | 1.0 | 2.0 | 0.00 | 0.00 | 0.00 | 1 | 1015.0 |
| 20260901022019 | 63 | 234 | 0.0 | 3.0 | 0.00 | 0.00 | 0.00 | 1 | 1015.0 |
| 20260901021603 | 64 | 234 | 1.0 | 4.0 | 0.00 | 0.00 | 0.00 | 1 | 1015.0 |
| 20260901021016 | 65 | 234 | 2.0 | 3.0 | 0.00 | 0.00 | 0.00 | 1 | 1015.1 |
| 20260901020517 | 65 | 234 | 1.0 | 3.0 | 0.00 | 0.00 | 0.00 | 1 | 1015.2 |
| 20260901020051 | 66 | 234 | 0.0 | 1.0 | 0.00 | 0.00 | 0.00 | 1 | 1015.0 |
| 20260901015516 | 67 | 234 | 0.0 | 2.0 | 0.00 | 0.00 | 0.00 | 1 | 1015.2 |
| 20260901015020 | 68 | 234 | 0.0 | 2.0 | 0.00 | 0.00 | 0.00 | 1 | 1015.0 |
| 20260901014559 | 68 | 234 | 1.0 | 4.0 | 0.00 | 0.00 | 0.00 | 1 | 1015.0 |
| 20260901014019 | 69 | 234 | 2.0 | 4.0 | 0.00 | 0.00 | 0.00 | 1 | 1015.0 |
| 20260901013519 | 70 | 234 | 3.0 | 4.0 | 0.00 | 0.00 | 0.00 | 1 | 1015.1 |
| 20260901013046 | 71 | 234 | 1.0 | 3.0 | 0.00 | 0.00 | 0.00 | 1 | 1015.1 |
| 20260901012521 | 71 | 234 | 1.0 | 4.0 | 0.00 | 0.00 | 0.00 | 1 | 1015.2 |
| 20260901012022 | 71 | 234 | 2.0 | 5.0 | 0.00 | 0.00 | 0.00 | 1 | 1015.2 |
| 20260901011550 | 71 | 234 | 3.0 | 5.0 | 0.00 | 0.00 | 0.00 | 1 | 1015.4 |
| 20260901011020 | 71 | 234 | 3.0 | 7.0 | 0.00 | 0.00 | 0.00 | 1 | 1015.5 |
| 20260901010516 | 71 | 201 | 3.0 | 7.0 | 0.00 | 0.00 | 0.00 | 1 | 1015.5 |
| 20260901010045 | 71 | 201 | 3.0 | 7.0 | 0.00 | 0.00 | 0.00 | 1 | 1015.5 |
| 20260901005519 | 72 | 236 | 4.0 | 7.0 | 0.00 | 0.01 | 0.00 | 1 | 1015.5 |
| 20260901005021 | 72 | 202 | 2.0 | 6.0 | 0.00 | 0.01 | 0.00 | 1 | 1015.5 |
| 20260901004555 | 72 | 207 | 2.0 | 6.0 | 0.00 | 0.01 | 0.00 | 1 | 1015.4 |
| 20260901004017 | 72 | 214 | 4.0 | 8.0 | 0.00 | 0.01 | 0.00 | 1 | 1015.4 |
| 20260901003517 | 72 | 258 | 5.0 | 10.0 | 0.00 | 0.01 | 0.00 | 1 | 1015.4 |
| 20260901003045 | 72 | 238 | 3.0 | 8.0 | 0.00 | 0.01 | 0.00 | 1 | 1015.5 |
| 20260901002520 | 72 | 238 | 5.0 | 8.0 | 0.00 | 0.01 | 0.00 | 1 | 1015.6 |
| 20260901002026 | 72 | 230 | 3.0 | 9.0 | 0.00 | 0.01 | 0.00 | 1 | 1015.5 |
| 20260901001545 | 72 | 180 | 6.0 | 9.0 | 0.00 | 0.01 | 0.00 | 1 | 1015.6 |
| 20260901001019 | 72 | 227 | 4.0 | 10.0 | 0.00 | 0.01 | 0.00 | 1 | 1015.7 |
| 20260901000519 | 72 | 196 | 5.0 | 10.0 | 0.00 | 0.01 | 0.00 | 1 | 1015.6 |
| 20260901000054 | 72 | 250 | 3.0 | 12.0 | 0.00 | 0.01 | 0.00 | 1 | 1015.7 |
| 20260831235516 | 71 | 223 | 7.0 | 12.0 | 0.00 | 0.02 | 0.00 | 1 | 1015.8 |
| 20260831235023 | 72 | 213 | 7.0 | 10.0 | 0.00 | 0.02 | 0.00 | 1 | 1015.8 |
| 20260831234550 | 72 | 204 | 6.0 | 8.0 | 0.00 | 0.02 | 0.00 | 1 | 1015.8 |
| 20260831234018 | 71 | 220 | 4.0 | 10.0 | 0.00 | 0.02 | 0.00 | 1 | 1015.7 |
| 20260831233518 | 71 | 240 | 5.0 | 10.0 | 0.00 | 0.02 | 0.00 | 1 | 1015.7 |
| 20260831233049 | 72 | 240 | 6.0 | 12.0 | 0.00 | 0.02 | 0.00 | 1 | 1015.8 |
| 20260831232517 | 72 | 270 | 7.0 | 12.0 | 0.00 | 0.02 | 0.00 | 1 | 1015.8 |
| 20260831232022 | 72 | 250 | 6.0 | 10.0 | 0.00 | 0.02 | 0.00 | 1 | 1015.8 |
| 20260831231600 | 72 | 221 | 2.0 | 9.0 | 0.00 | 0.02 | 0.00 | 1 | 1015.8 |
| 20260831231019 | 71 | 221 | 3.0 | 13.0 | 0.00 | 0.02 | 0.00 | 1 | 1015.8 |
| 20260831230518 | 71 | 254 | 9.0 | 13.0 | 0.00 | 0.02 | 0.00 | 1 | 1015.9 |
| 20260831230059 | 71 | 221 | 4.0 | 10.0 | 0.00 | 0.02 | 0.00 | 1 | 1015.9 |
| 20260831225518 | 71 | 288 | 7.0 | 14.0 | 0.00 | 0.02 | 0.00 | 1 | 1016.0 |
| 20260831225017 | 72 | 223 | 9.0 | 14.0 | 0.00 | 0.02 | 0.00 | 1 | 1015.9 |
| 20260831224622 | 71 | 190 | 2.0 | 10.0 | 0.00 | 0.02 | 0.00 | 1 | 1015.9 |
| 20260831224021 | 71 | 205 | 7.0 | 13.0 | 0.00 | 0.02 | 0.00 | 1 | 1016.0 |
| 20260831223521 | 71 | 266 | 7.0 | 13.0 | 0.00 | 0.02 | 0.00 | 1 | 1016.1 |
| 20260831223054 | 71 | 205 | 9.0 | 13.0 | 0.00 | 0.02 | 0.00 | 1 | 1016.1 |
| 20260831222519 | 71 | 229 | 3.0 | 15.0 | 0.00 | 0.02 | 0.00 | 1 | 1016.1 |
| 20260831222017 | 71 | 291 | 7.0 | 15.0 | 0.00 | 0.02 | 0.00 | 1 | 1016.1 |
| 20260831221554 | 71 | 140 | 2.0 | 11.0 | 0.00 | 0.02 | 0.00 | 1 | 1016.1 |
| 20260831221017 | 71 | 157 | 3.0 | 14.0 | 0.00 | 0.02 | 0.00 | 1 | 1016.0 |
| 20260831220521 | 71 | 193 | 8.0 | 15.0 | 0.00 | 0.02 | 0.00 | 1 | 1016.1 |
| 20260831220053 | 72 | 196 | 9.0 | 13.0 | 0.00 | 0.02 | 0.00 | 1 | 1016.1 |
| 20260831215523 | 71 | 188 | 4.0 | 13.0 | 0.00 | 0.02 | 0.00 | 1 | 1016.0 |
| 20260831215019 | 71 | 250 | 6.0 | 13.0 | 0.00 | 0.02 | 0.00 | 1 | 1016.2 |
| 20260831214555 | 70 | 186 | 7.0 | 16.0 | 0.00 | 0.02 | 0.00 | 1 | 1016.1 |
| 20260831214023 | 71 | 198 | 8.0 | 16.0 | 0.00 | 0.02 | 0.00 | 1 | 1016.2 |
| 20260831213520 | 71 | 225 | 9.0 | 15.0 | 0.00 | 0.02 | 0.00 | 1 | 1016.2 |
| 20260831213050 | 70 | 192 | 9.0 | 15.0 | 0.00 | 0.02 | 0.00 | 1 | 1016.2 |
| 20260831212519 | 70 | 196 | 6.0 | 18.0 | 0.00 | 0.02 | 0.00 | 1 | 1016.3 |
| 20260831212020 | 70 | 265 | 7.0 | 14.0 | 0.00 | 0.02 | 0.00 | 1 | 1016.2 |
| 20260831211605 | 70 | 171 | 3.0 | 11.0 | 0.00 | 0.02 | 0.00 | 1 | 1016.2 |
| 20260831211019 | 70 | 314 | 6.0 | 15.0 | 0.00 | 0.02 | 0.00 | 1 | 1016.1 |
| 20260831210520 | 69 | 186 | 8.0 | 15.0 | 0.00 | 0.02 | 0.00 | 1 | 1016.2 |
| 20260831210045 | 70 | 198 | 10.0 | 14.0 | 0.00 | 0.02 | 0.00 | 1 | 1016.2 |